Mankato, MN

9:44 AM CST on November 13, 2019 (GMT -0600)
Mankato Regional

Weather History for KMKT - May, 2019

Change the Weather History Date:

Friday, May 31, 2019

  Actual Average Record
Temperature  
Mean Temperature 74 °F -  
Max Temperature 87 °F 68 °F 87 °F (2014)
Min Temperature 61 °F 51 °F 44 °F (2015)
Cooling Degree Days 9    
Growing Degree Days 24 (Base 50)    
Moisture  
Dew Point 55 °F    
Average Humidity 53    
Maximum Humidity 83    
Minimum Humidity 29    
Precipitation  
Precipitation 0.00 in - - ()
Sea Level Pressure  
Sea Level Pressure 29.79 in    
Wind  
Wind Speed 9 mph (WSW)    
Max Wind Speed 20 mph    
Max Gust Speed -    
Visibility 10 miles    
Events      
Averages and records for this station are not official NWS values.
T = Trace of Precipitation, MM = Missing Value Source: NWS Daily Summary

Daily Weather History Graph

Daily Weather History Graph

Search for Another Location

Airport or City:

Astronomy

May. 31, 2019 Rise Set
Actual Time 5:35 AM CDT 8:51 PM CDT
Civil Twilight 5:00 AM CDT 9:27 PM CDT
Nautical Twilight 4:14 AM CDT 10:13 PM CDT
Astronomical Twilight 3:17 AM CDT 11:09 PM CDT
Moon 4:19 AM CDT (5/31) 5:53 PM CDT (5/31)
Length of Visible Light 16h 26m
Length of Day
15h 15m
Waning Crescent, 8% of the Moon is Illuminated
May 31
Waning Crescent
Jun 3
New
Jun 10
First Quarter
Jun 17
Full
Jun 25
Last Quarter

Hourly Weather History & Observations

Time (CDT) Temp. Heat Index Dew Point Humidity Pressure Visibility Wind Dir Wind Speed Gust Speed Precip Events Conditions
12:56 AM 66.0 °F - 54.0 °F 65% 29.82 in 10.0 mi SSW 5.8 mph - N/A   Clear
1:56 AM 64.9 °F - 54.0 °F 68% 29.81 in 10.0 mi SSW 6.9 mph - N/A   Clear
2:56 AM 64.9 °F - 55.0 °F 70% 29.81 in 10.0 mi SSW 8.1 mph - N/A   Clear
3:56 AM 63.0 °F - 55.9 °F 78% 29.81 in 10.0 mi SSW 9.2 mph - N/A   Clear
4:56 AM 62.1 °F - 55.9 °F 80% 29.81 in 10.0 mi SSW 6.9 mph - N/A   Clear
5:56 AM 61.0 °F - 55.9 °F 83% 29.82 in 9.0 mi SW 6.9 mph - N/A   Clear
7:56 AM 66.0 °F - 57.0 °F 73% 29.83 in 10.0 mi WSW 5.8 mph - N/A   Clear
9:56 AM 73.0 °F - 59.0 °F 61% 29.84 in 10.0 mi West 9.2 mph - N/A   Clear
10:56 AM 78.1 °F - 59.0 °F 52% 29.84 in 10.0 mi WNW 9.2 mph - N/A   Clear
12:56 PM 84.0 °F 83.0 °F 55.9 °F 38% 29.83 in 10.0 mi West 10.4 mph - N/A   Clear
1:56 PM 84.9 °F 83.3 °F 54.0 °F 34% 29.81 in 10.0 mi WNW 11.5 mph - N/A   Clear
2:56 PM 87.1 °F 85.3 °F 55.0 °F 33% 29.80 in 10.0 mi West 15.0 mph - N/A   Clear
3:56 PM 87.1 °F - 51.1 °F 29% 29.78 in 10.0 mi West 19.6 mph - N/A   Clear
4:56 PM 87.1 °F - 51.1 °F 29% 29.77 in 10.0 mi West 16.1 mph - N/A   Clear
5:56 PM 86.0 °F - 50.0 °F 29% 29.77 in 10.0 mi West 16.1 mph - N/A   Clear
6:56 PM 84.0 °F - 52.0 °F 33% 29.75 in 10.0 mi West 13.8 mph - N/A   Clear
7:56 PM 81.0 °F 80.5 °F 54.0 °F 39% 29.75 in 10.0 mi West 11.5 mph - N/A   Clear
8:56 PM 78.1 °F - 54.0 °F 43% 29.76 in 10.0 mi SW 6.9 mph - N/A   Clear
9:56 PM 75.0 °F - 55.9 °F 51% 29.76 in 10.0 mi SW 6.9 mph - N/A   Clear
10:56 PM 73.9 °F - 57.0 °F 55% 29.76 in 10.0 mi SW 5.8 mph - N/A   Clear
11:56 PM 72.0 °F - 57.9 °F 61% 29.74 in 10.0 mi SW 9.2 mph - N/A   Clear